Terminal Aerodrome Forecast
Issued by NWS Sterling, VA

Current Version | Previous Version | Graphics & Text | Print | Product List | Glossary On
Versions: 1 2 3 4 5 6 7 8 9 10 11 12 13 14 15 16 17 18 19 20 21 22 23
000
FTUS41 KLWX 282340
TAFIAD
TAF
KIAD 282340Z 2900/3006 VRB03KT P6SM SKC
     FM291600 21006KT P6SM FEW250
     FM292300 VRB03KT P6SM BKN080
     FM300100 18004KT P6SM SCT070=

USA.gov is the U.S. government's official web portal to all federal, state and local government web resources and services.